TimeEDT,TemperatureF,Dew PointF,Humidity,Sea Level PressureIn,VisibilityMPH,Wind Direction,Wind SpeedMPH,Gust SpeedMPH,PrecipitationIn,Events,Conditions,WindDirDegrees,DateUTC
12:54 AM,41.0,37.0,86,29.78,10.0,NNW,9.2,-,N/A,,Overcast,330,2013-05-17 04:54:00
1:13 AM,41.0,37.4,87,29.75,10.0,NNW,11.5,17.3,N/A,,Overcast,330,2013-05-17 05:13:00
1:54 AM,42.1,37.0,82,29.79,10.0,NNW,6.9,-,N/A,,Overcast,330,2013-05-17 05:54:00
2:06 AM,42.8,37.4,81,29.77,10.0,NW,4.6,-,N/A,,Overcast,320,2013-05-17 06:06:00
2:54 AM,42.1,37.0,82,29.79,10.0,NNW,12.7,-,N/A,,Overcast,330,2013-05-17 06:54:00
3:54 AM,41.0,37.0,86,29.81,10.0,NNW,12.7,-,N/A,,Overcast,330,2013-05-17 07:54:00
4:15 AM,41.0,37.4,87,29.79,10.0,NNW,10.4,-,N/A,,Overcast,330,2013-05-17 08:15:00
4:54 AM,41.0,37.0,86,29.83,10.0,NNW,11.5,-,N/A,,Overcast,330,2013-05-17 08:54:00
5:54 AM,42.1,37.0,82,29.86,10.0,NNW,12.7,-,N/A,,Overcast,330,2013-05-17 09:54:00
6:54 AM,42.1,37.0,82,29.90,10.0,North,10.4,17.3,N/A,,Overcast,350,2013-05-17 10:54:00
8:54 AM,45.0,37.0,74,29.94,10.0,North,12.7,20.7,N/A,,Overcast,350,2013-05-17 12:54:00
9:25 AM,46.4,37.4,71,29.93,10.0,North,15.0,-,N/A,,Overcast,360,2013-05-17 13:25:00
9:54 AM,48.0,37.0,66,29.97,10.0,North,12.7,20.7,N/A,,Overcast,360,2013-05-17 13:54:00
10:42 AM,46.4,37.4,71,29.97,10.0,NNW,9.2,-,0.00,Rain,Light Rain,330,2013-05-17 14:42:00
10:54 AM,46.9,37.0,68,30.00,10.0,North,11.5,-,0.00,Rain,Light Rain,350,2013-05-17 14:54:00
11:54 AM,48.9,37.9,66,30.01,10.0,North,13.8,-,0.00,,Overcast,350,2013-05-17 15:54:00
12:31 PM,50.0,39.2,66,29.99,10.0,NNW,15.0,24.2,0.00,,Overcast,340,2013-05-17 16:31:00
12:54 PM,50.0,39.9,68,30.02,10.0,North,12.7,24.2,0.00,Rain,Light Rain,350,2013-05-17 16:54:00
1:03 PM,51.8,39.2,62,29.99,10.0,NNW,13.8,21.9,0.00,,Mostly Cloudy,340,2013-05-17 17:03:00
1:54 PM,51.1,39.0,63,30.03,10.0,NNW,16.1,25.3,0.00,,Mostly Cloudy,340,2013-05-17 17:54:00
3:54 PM,53.1,37.9,57,30.05,10.0,NNW,17.3,25.3,N/A,,Overcast,340,2013-05-17 19:54:00
4:54 PM,51.1,37.0,59,30.08,10.0,NNW,13.8,19.6,N/A,,Mostly Cloudy,340,2013-05-17 20:54:00
5:54 PM,50.0,35.1,57,30.10,10.0,North,12.7,20.7,N/A,,Scattered Clouds,360,2013-05-17 21:54:00
6:54 PM,51.1,34.0,52,30.12,10.0,North,11.5,18.4,N/A,,Mostly Cloudy,350,2013-05-17 22:54:00
7:54 PM,48.0,35.1,61,30.14,10.0,North,5.8,-,N/A,,Overcast,10,2013-05-17 23:54:00
8:54 PM,46.9,35.1,63,30.17,10.0,NNE,3.5,-,N/A,,Overcast,20,2013-05-18 00:54:00
9:54 PM,44.1,35.1,71,30.19,10.0,North,5.8,-,N/A,,Overcast,10,2013-05-18 01:54:00
10:54 PM,44.1,35.1,71,30.20,10.0,North,5.8,-,N/A,,Overcast,10,2013-05-18 02:54:00
11:54 PM,43.0,35.1,74,30.22,10.0,North,6.9,-,N/A,,Overcast,10,2013-05-18 03:54:00